[[{"header":{"parameterUnit":"m.s-1","parameterCategory":2,"la1":30.2991,"la2":30.254,"lo1":-89.0895,"lo2":-89.0444,"dy":0.0017,"dx":0.0017,"nx":28,"ny":28,"refTime":"2025-08-02T09:00:00:Z","depth":"0","parameterNumber":2,"parameterNumberName":"U-component_of_CURRENTS"},"data":[0,0,0,0,0,0,0,0,0,0,0,0,0,0,0,0,0,0,0,0,0,0,0,0,0,0,0,0,0,0,0,0,0,0,0,0,0,0,0,0,0,0,0,0,0,0,0,0,0,0,0,0,0,0,0,0,0,0,-0.246,-0.2459,0,-0.2404,-0.2403,-0.2402,-0.232,-0.2319,-0.2317,-0.2316,-0.2214,-0.2213,-0.2211,0,0,0,0,0,0,0,0,0,0,0,0,0,-0.234,-0.2343,-0.246,-0.2459,-0.2459,-0.2404,-0.2403,-0.2402,-0.232,-0.2319,-0.2317,-0.2316,-0.2215,-0.2213,-0.2211,0,0,0,0,0,0,0,0,0,0,0,0,0,-0.2348,-0.2344,-0.246,-0.2412,-0.2408,-0.2404,-0.2403,-0.2402,-0.232,-0.2319,-0.2317,-0.2315,-0.2215,-0.2213,-0.2211,-0.2235,0,0,-0.2204,-0.2203,0,0,0,0,0,0,0,0,-0.2347,-0.2352,-0.242,-0.2416,-0.2411,-0.2369,-0.2323,-0.2344,-0.2321,-0.2352,-0.2316,-0.2314,-0.2264,-0.2258,-0.225,-0.223,-0.2226,-0.2204,-0.2202,-0.2201,-0.2201,0,0,0,0,0,0,0,-0.2347,-0.2353,-0.2436,-0.242,-0.2414,-0.2341,-0.2341,-0.2326,-0.2317,-0.2349,-0.2343,-0.2341,-0.2261,-0.2252,-0.2246,-0.2224,-0.2204,-0.2202,-0.22,-0.2199,-0.221,-0.2211,0,0,0,0,0,0,-0.2369,-0.2354,-0.2437,-0.2434,-0.2376,-0.2346,-0.2345,-0.2382,-0.2318,-0.2307,-0.2342,-0.2337,-0.2257,-0.2249,-0.2243,-0.224,-0.2201,-0.2199,-0.2198,-0.2208,-0.221,-0.2212,0,0,0,0,0,0,-0.2368,-0.2379,-0.244,-0.2391,-0.2394,-0.2351,-0.2392,-0.2382,-0.2363,-0.2314,-0.2301,-0.2331,-0.2255,-0.2246,-0.2226,-0.2236,-0.2198,-0.2196,-0.2206,-0.2209,-0.2211,-0.2251,0,0,0,0,0,0,-0.2365,-0.238,-0.2406,-0.2395,-0.2398,-0.2431,-0.2394,-0.2383,-0.2366,-0.2358,-0.2301,-0.229,-0.2253,-0.223,-0.2224,-0.2232,-0.2194,-0.2204,-0.2207,-0.221,-0.2248,-0.2255,-0.2261,0,0,0,0,0,-0.2362,-0.2418,-0.2409,-0.2418,-0.2441,-0.2432,-0.2426,-0.2386,-0.2367,-0.2361,-0.2328,-0.2291,-0.2245,-0.2229,-0.2222,-0.2229,-0.2203,-0.2206,-0.221,-0.2245,-0.2253,-0.2261,0,0,0,0,0,0,-0.2393,-0.2415,-0.2405,-0.2469,-0.2445,-0.2418,-0.2418,-0.2392,-0.2363,-0.2358,-0.2306,-0.2293,-0.2284,-0.2262,-0.2245,-0.2247,-0.2221,-0.2224,-0.2251,-0.2258,-0.2265,-0.2269,-0.2192,0,0,0,0,0,-0.2413,-0.2452,-0.2446,-0.249,-0.2487,-0.2452,-0.2443,-0.2418,-0.2394,-0.2378,-0.2341,-0.2314,-0.2299,-0.228,-0.2264,-0.2261,-0.2209,-0.2267,-0.2273,-0.2278,-0.2281,-0.2247,-0.2249,-0.2224,-0.2224,-0.2224,0,0,-0.2439,-0.2453,-0.2476,-0.2495,-0.2478,-0.2473,-0.2441,-0.2437,-0.2425,-0.2375,-0.2355,-0.2336,-0.2306,-0.23,-0.2294,-0.2276,-0.2248,-0.2283,-0.2287,-0.2287,-0.2251,-0.2253,-0.2255,-0.2227,-0.2226,-0.2226,0,0,-0.2483,-0.2521,-0.2547,-0.2534,-0.2515,-0.2497,-0.2498,-0.2473,-0.2452,-0.2439,-0.2406,-0.2397,-0.2363,-0.2345,-0.2332,-0.2371,-0.2289,-0.2367,-0.2391,-0.2358,-0.2359,-0.2359,-0.2239,-0.2229,-0.2363,-0.2363,-0.2364,0,-0.2503,-0.2547,-0.2547,-0.2551,-0.2543,-0.2511,-0.2514,-0.2497,-0.2464,-0.2455,-0.2437,-0.2408,-0.2387,-0.2376,-0.2391,-0.2383,-0.2319,-0.2357,-0.2363,-0.2363,-0.2363,-0.224,-0.2228,-0.2366,-0.2366,-0.2365,-0.2365,0,-0.2545,-0.2571,-0.2587,-0.2584,-0.2574,-0.258,-0.2554,-0.2545,-0.2524,-0.25,-0.2489,-0.2464,-0.2438,-0.2443,-0.2425,-0.2421,-0.2357,-0.2377,-0.2335,-0.2367,-0.2236,-0.2222,-0.2369,-0.2368,-0.2368,-0.2367,0,0,-0.2588,-0.2616,-0.2613,-0.259,-0.2594,-0.2569,-0.2587,-0.257,-0.2536,-0.2538,-0.2499,-0.2518,-0.2496,-0.2483,-0.2461,-0.2444,-0.2377,-0.2411,-0.2408,-0.2275,-0.2227,-0.1955,-0.1912,-0.2393,-0.2392,-0.2392,-0.2113,0,-0.2603,-0.262,-0.264,-0.2619,-0.2605,-0.2602,-0.2589,-0.257,-0.255,-0.2501,-0.2511,-0.2465,-0.251,-0.2473,-0.2478,-0.2397,-0.2353,-0.2445,-0.2231,-0.2223,-0.1966,-0.1894,-0.1641,-0.1354,-0.21,-0.2098,-0.2096,0,-0.2598,-0.2609,-0.2619,-0.2586,-0.258,-0.2568,-0.2523,-0.2511,-0.2481,-0.2459,-0.2463,-0.2438,-0.2418,-0.2443,-0.2349,-0.2399,-0.2324,-0.2269,-0.2257,-0.1984,-0.1927,-0.1457,-0.13,-0.1216,-0.2074,-0.2076,-0.2078,0,-0.2527,-0.2565,-0.2568,-0.2564,-0.2546,-0.254,-0.2527,-0.2498,-0.2454,-0.2422,-0.2361,-0.2368,-0.2296,-0.228,-0.2186,-0.2258,-0.203,-0.2109,-0.1788,-0.1765,-0.1496,-0.1449,-0.122,-0.2038,-0.2038,-0.2039,-0.204,0,-0.2471,-0.2451,-0.2534,-0.2497,-0.2466,-0.2478,-0.241,-0.2403,-0.2359,-0.2248,-0.232,-0.22,-0.2256,-0.214,-0.2117,-0.1851,-0.1969,-0.1744,-0.1673,-0.1494,-0.1453,-0.1326,-0.1386,-0.2029,-0.2031,-0.2033,-0.2035,0,-0.231,-0.2392,-0.2369,-0.24,-0.2411,-0.2365,-0.2328,-0.2257,-0.2247,-0.2104,-0.2083,-0.2035,-0.1847,-0.1838,-0.1718,-0.1666,-0.1428,-0.1396,-0.1128,-0.1029,-0.0651,-0.0723,-0.062,-0.0666,-0.0981,-0.0973,-0.0966,0,-0.2222,-0.2206,-0.2266,-0.2252,-0.2256,-0.2223,-0.2176,-0.2189,-0.2109,-0.195,-0.1849,-0.167,-0.1421,-0.1133,-0.1028,-0.084,-0.1036,-0.0538,-0.0654,-0.0528,-0.0562,-0.0833,-0.0908,-0.0297,-0.0284,-0.0275,-0.0267,0,-0.202,-0.2067,-0.2046,-0.2043,-0.2022,-0.1956,-0.1902,-0.1823,-0.1769,-0.1616,-0.1314,-0.1099,-0.0798,-0.0429,-0.0236,-0.0172,-0.0486,-0.0322,-0.0292,-0.0056,-0.0242,-0.0281,-0.0552,-0.0179,-0.0188,-0.0194,-0.0199,-0.0203,-0.1859,-0.1819,-0.1827,-0.1785,-0.1756,-0.1614,-0.1468,-0.1383,-0.1163,-0.0842,-0.0795,-0.0383,-0.0029,0.0338,0.0402,0.0623,0.0219,0.0642,0.0539,0.0246,0.0213,0.0201,0.0697,0.0694,0.0691,0.0688,0.0685,0,-0.1619,-0.1597,-0.1559,-0.1473,-0.132,-0.139,-0.1212,-0.1017,-0.066,-0.0414,-0.0075,0.0443,0.0912,0.1053,0.1365,0.1455,0.1152,0.1403,0.1052,0.092,0.0924,0.0975,0.1676,0.1676,0.1676,0.1675,0.1675,0.1675,-0.1481,-0.1359,-0.1346,-0.1055,-0.0981,-0.0698,-0.054,-0.0309,-0.0102,0.0391,0.0687,0.086,0.1086,0.1642,0.192,0.1906,0.1591,0.1654,0.1347,0.141,0.1326,0.1246,0.1283,0.2037,0.2037,0.1322,0.1318,0.1315]},{"header":{"parameterUnit":"m.s-1","parameterCategory":2,"la1":30.2991,"la2":30.254,"lo1":-89.0895,"lo2":-89.0444,"dy":0.0017,"dx":0.0017,"nx":28,"ny":28,"refTime":"2025-08-02T09:00:00:Z","depth":"0","parameterNumber":3,"parameterNumberName":"V-component_of_CURRENTS"},"data":[0,0,0,0,0,0,0,0,0,0,0,0,0,0,0,0,0,0,0,0,0,0,0,0,0,0,0,0,0,0,0,0,0,0,0,0,0,0,0,0,0,0,0,0,0,0,0,0,0,0,0,0,0,0,0,0,0,0,-0.0521,-0.052,0,-0.0439,-0.0438,-0.0437,-0.0278,-0.0274,-0.0271,-0.0268,-0.0103,-0.0102,-0.0101,0,0,0,0,0,0,0,0,0,0,0,0,0,-0.0602,-0.0601,-0.0521,-0.052,-0.0519,-0.0439,-0.0438,-0.0437,-0.0278,-0.0274,-0.027,-0.0267,-0.0104,-0.0102,-0.01,0,0,0,0,0,0,0,0,0,0,0,0,0,-0.0548,-0.06,-0.0521,-0.043,-0.0421,-0.0439,-0.0438,-0.0437,-0.0279,-0.0274,-0.0269,-0.0265,-0.0104,-0.0102,-0.01,-0.0181,0,0,-0.0093,-0.0092,0,0,0,0,0,0,0,0,-0.0551,-0.0545,-0.0444,-0.0436,-0.0426,-0.0364,-0.0406,-0.0347,-0.028,-0.0333,-0.0268,-0.0263,-0.0186,-0.0177,-0.0173,-0.0173,-0.0166,-0.0093,-0.0092,-0.0091,-0.009,0,0,0,0,0,0,0,-0.0555,-0.0548,-0.0488,-0.0444,-0.0433,-0.0415,-0.0401,-0.0395,-0.0285,-0.0328,-0.0316,-0.0309,-0.018,-0.0176,-0.0168,-0.0163,-0.0093,-0.0091,-0.009,-0.0089,-0.0151,-0.0154,0,0,0,0,0,0,-0.0567,-0.0552,-0.0491,-0.0486,-0.0478,-0.0417,-0.0402,-0.0389,-0.0287,-0.0267,-0.0313,-0.0302,-0.0182,-0.0171,-0.0161,-0.0189,-0.0091,-0.0089,-0.0088,-0.0148,-0.0152,-0.0155,0,0,0,0,0,0,-0.0569,-0.0563,-0.0494,-0.0517,-0.0507,-0.042,-0.0407,-0.0389,-0.0364,-0.0276,-0.0254,-0.0302,-0.0178,-0.0165,-0.0159,-0.0183,-0.0088,-0.0086,-0.0145,-0.015,-0.0154,-0.0284,0,0,0,0,0,0,-0.0572,-0.0564,-0.0563,-0.0518,-0.0506,-0.0516,-0.0411,-0.0391,-0.0368,-0.0352,-0.0262,-0.0242,-0.0173,-0.0164,-0.0157,-0.0178,-0.0084,-0.0141,-0.0147,-0.0152,-0.0275,-0.0292,-0.0306,0,0,0,0,0,-0.0575,-0.0611,-0.0564,-0.0557,-0.0506,-0.0519,-0.0513,-0.0435,-0.0372,-0.0389,-0.0324,-0.0243,-0.0193,-0.0166,-0.0157,-0.0177,-0.0138,-0.0145,-0.0152,-0.0269,-0.0289,-0.0306,0,0,0,0,0,0,-0.0649,-0.0597,-0.0544,-0.0559,-0.0539,-0.0492,-0.0505,-0.0452,-0.0417,-0.0392,-0.0293,-0.0273,-0.0275,-0.023,-0.0201,-0.0216,-0.015,-0.0155,-0.0242,-0.026,-0.0275,-0.0265,-0.0082,0,0,0,0,0,-0.0667,-0.0672,-0.0622,-0.0635,-0.0631,-0.0569,-0.0562,-0.0513,-0.0475,-0.0452,-0.0392,-0.0336,-0.0308,-0.0283,-0.0259,-0.0282,-0.0246,-0.0289,-0.0304,-0.0317,-0.0307,-0.0307,-0.032,-0.0177,-0.0177,-0.0177,0,0,-0.0695,-0.0671,-0.0669,-0.0651,-0.0625,-0.0637,-0.0553,-0.056,-0.0554,-0.0447,-0.0437,-0.0397,-0.0331,-0.0341,-0.0337,-0.0296,-0.0348,-0.0326,-0.0337,-0.0319,-0.0315,-0.0328,-0.034,-0.0182,-0.0181,-0.018,0,0,-0.0776,-0.074,-0.0769,-0.0759,-0.0734,-0.0706,-0.0711,-0.0673,-0.0637,-0.0648,-0.0557,-0.0536,-0.0506,-0.0452,-0.0421,-0.0518,-0.0436,-0.0511,-0.0566,-0.0567,-0.0578,-0.0587,-0.0587,-0.0595,-0.0508,-0.0509,-0.0509,0,-0.081,-0.0815,-0.0787,-0.0811,-0.0793,-0.074,-0.0755,-0.0747,-0.0709,-0.0687,-0.0661,-0.0608,-0.0555,-0.0533,-0.0554,-0.0547,-0.0535,-0.0496,-0.0585,-0.0593,-0.0599,-0.0597,-0.0604,-0.0516,-0.0515,-0.0514,-0.0513,0,-0.0893,-0.0892,-0.0922,-0.0911,-0.091,-0.0925,-0.0891,-0.0893,-0.0852,-0.0819,-0.0808,-0.0761,-0.0707,-0.0707,-0.0653,-0.0671,-0.0645,-0.0611,-0.0532,-0.0621,-0.0614,-0.0619,-0.0526,-0.0523,-0.0521,-0.0519,0,0,-0.0956,-0.0971,-0.0971,-0.0954,-0.0945,-0.0946,-0.0968,-0.0948,-0.0932,-0.0932,-0.0915,-0.089,-0.0846,-0.0811,-0.0753,-0.0753,-0.0802,-0.0706,-0.0703,-0.0695,-0.0811,-0.068,-0.0671,-0.0785,-0.0786,-0.0787,-0.0796,0,-0.1007,-0.1051,-0.1045,-0.1065,-0.1066,-0.1026,-0.1039,-0.1019,-0.0999,-0.0993,-0.0956,-0.0935,-0.0892,-0.0864,-0.0866,-0.0804,-0.0817,-0.0803,-0.0733,-0.0731,-0.0594,-0.0672,-0.0557,-0.0544,-0.0799,-0.08,-0.0801,0,-0.1054,-0.107,-0.1096,-0.1079,-0.1076,-0.1092,-0.1054,-0.1062,-0.1053,-0.1036,-0.1026,-0.0995,-0.098,-0.0946,-0.0912,-0.0906,-0.0872,-0.0843,-0.0842,-0.0666,-0.0607,-0.0492,-0.0541,-0.0586,-0.0807,-0.0806,-0.0806,0,-0.1046,-0.1085,-0.1092,-0.1088,-0.109,-0.1087,-0.1085,-0.1069,-0.1041,-0.1063,-0.104,-0.1047,-0.1006,-0.1007,-0.0921,-0.0931,-0.0884,-0.0887,-0.0749,-0.074,-0.0595,-0.057,-0.066,-0.0889,-0.0889,-0.0889,-0.0889,0,-0.1055,-0.1061,-0.1091,-0.1084,-0.1089,-0.1087,-0.1071,-0.1078,-0.1058,-0.0978,-0.105,-0.097,-0.1017,-0.0974,-0.095,-0.0836,-0.0903,-0.0763,-0.0731,-0.064,-0.062,-0.0609,-0.0672,-0.0889,-0.0889,-0.0889,-0.0889,0,-0.1028,-0.105,-0.1057,-0.1073,-0.1079,-0.1076,-0.1047,-0.1004,-0.1023,-0.0925,-0.0924,-0.0917,-0.085,-0.0881,-0.0849,-0.0815,-0.0724,-0.0708,-0.0593,-0.0546,-0.0463,-0.0536,-0.0554,-0.0417,-0.0596,-0.0593,-0.059,0,-0.1024,-0.1022,-0.1038,-0.1019,-0.1026,-0.102,-0.0973,-0.0982,-0.0892,-0.0815,-0.0722,-0.0705,-0.0556,-0.0527,-0.0538,-0.0527,-0.0562,-0.0414,-0.0408,-0.0443,-0.0504,-0.056,-0.0447,-0.0297,-0.0292,-0.0288,-0.0285,0,-0.0998,-0.0995,-0.0991,-0.0949,-0.0912,-0.0851,-0.0777,-0.0705,-0.0624,-0.0527,-0.0313,-0.0221,-0.0212,-0.0125,-0.0189,-0.0189,-0.0377,-0.0326,-0.0404,-0.0306,-0.0335,-0.0189,-0.0322,-0.0249,-0.0253,-0.0255,-0.0257,-0.0259,-0.0956,-0.0946,-0.0903,-0.0851,-0.0776,-0.0605,-0.0488,-0.0356,-0.0172,0.0103,0.0109,0.0356,0.0299,0.0239,0.0121,-0.0026,-0.0071,-0.0027,-0.0125,-0.0188,-0.0018,-0.0056,0.0089,0.0088,0.0087,0.0085,0.0084,0,-0.0842,-0.082,-0.0786,-0.0662,-0.0477,-0.0489,-0.0267,-0.0067,0.0253,0.0469,0.0712,0.0955,0.0865,0.0637,0.0408,0.024,0.0163,0.0108,0.0008,0.0117,0.0045,0.0101,0.0309,0.0309,0.0309,0.0309,0.0309,0.0309,-0.0763,-0.0684,-0.0665,-0.0369,-0.0253,0.0064,0.0236,0.0495,0.0716,0.1141,0.1394,0.1525,0.138,0.081,0.0418,0.029,0.0192,0.0066,0.0076,-0.0074,-0.0097,-0.0118,-0.008,0.0085,0.0085,0.0271,0.0271,0.0272]}],[{"header":{"parameterUnit":"m.s-1","parameterCategory":2,"la1":30.2991,"la2":30.254,"lo1":-89.0895,"lo2":-89.0444,"dy":0.0017,"dx":0.0017,"nx":28,"ny":28,"refTime":"2025-08-02T09:00:00:Z","depth":"2","parameterNumber":2,"parameterNumberName":"U-component_of_CURRENTS"},"data":[0,0,0,0,0,0,0,0,0,0,0,0,0,0,0,0,0,0,0,0,0,0,0,0,0,0,0,0,0,0,0,0,0,0,0,0,0,0,0,0,0,0,0,0,0,0,0,0,0,0,0,0,0,0,0,0,0,0,-0.1793,-0.1793,0,-0.1867,-0.1869,-0.1871,-0.197,-0.197,-0.197,-0.1971,-0.1881,-0.1879,-0.1876,0,0,0,0,0,0,0,0,0,0,0,0,0,-0.1782,-0.1783,-0.1793,-0.1793,-0.1792,-0.1866,-0.1869,-0.1871,-0.197,-0.197,-0.197,-0.1971,-0.1882,-0.1879,-0.1876,0,0,0,0,0,0,0,0,0,0,0,0,0,-0.1829,-0.1783,-0.1794,-0.1839,-0.1842,-0.1866,-0.1869,-0.1872,-0.197,-0.197,-0.1971,-0.1971,-0.1883,-0.188,-0.1876,-0.1847,0,0,-0.1864,-0.1863,0,0,0,0,0,0,0,0,-0.1826,-0.1832,-0.1833,-0.1835,-0.1839,-0.1895,-0.1831,-0.185,-0.197,-0.1939,-0.1971,-0.1971,-0.186,-0.1858,-0.1897,-0.1843,-0.1839,-0.1864,-0.1862,-0.186,-0.1859,0,0,0,0,0,0,0,-0.1823,-0.1829,-0.1839,-0.1831,-0.1835,-0.1868,-0.1877,-0.1838,-0.1906,-0.1941,-0.1945,-0.1927,-0.1863,-0.1901,-0.1895,-0.1838,-0.1864,-0.1861,-0.1858,-0.1857,-0.1634,-0.1631,0,0,0,0,0,0,-0.1779,-0.1826,-0.1836,-0.1839,-0.1815,-0.1867,-0.1877,-0.189,-0.1911,-0.1911,-0.1927,-0.1931,-0.1907,-0.1899,-0.1891,-0.1793,-0.186,-0.1856,-0.1854,-0.1638,-0.1633,-0.163,0,0,0,0,0,0,-0.1779,-0.1781,-0.1833,-0.182,-0.1826,-0.1865,-0.188,-0.1891,-0.1966,-0.1898,-0.1899,-0.1991,-0.1907,-0.1897,-0.1825,-0.1792,-0.1855,-0.1851,-0.1642,-0.1637,-0.1632,-0.1636,0,0,0,0,0,0,-0.1779,-0.1781,-0.1772,-0.1817,-0.1825,-0.1851,-0.1878,-0.1892,-0.1944,-0.1952,-0.1951,-0.1943,-0.1906,-0.183,-0.1821,-0.1788,-0.1848,-0.1647,-0.164,-0.1633,-0.164,-0.1631,-0.1623,0,0,0,0,0,-0.1779,-0.178,-0.1772,-0.1771,-0.1813,-0.1849,-0.186,-0.1898,-0.1947,-0.1973,-0.1935,-0.1945,-0.178,-0.1825,-0.1814,-0.178,-0.165,-0.1642,-0.1634,-0.1644,-0.1633,-0.1623,0,0,0,0,0,0,-0.1788,-0.1789,-0.1782,-0.1787,-0.1806,-0.186,-0.1884,-0.1924,-0.1934,-0.1932,-0.1911,-0.1895,-0.1812,-0.1787,-0.1838,-0.1686,-0.1712,-0.1702,-0.1723,-0.1712,-0.1704,-0.1667,-0.1845,0,0,0,0,0,-0.1771,-0.1753,-0.178,-0.1771,-0.1801,-0.1855,-0.1877,-0.1898,-0.1905,-0.1921,-0.1887,-0.1833,-0.1768,-0.1738,-0.1667,-0.1605,-0.1581,-0.1566,-0.1557,-0.1551,-0.1507,-0.1473,-0.1459,-0.1603,-0.1603,-0.1603,0,0,-0.1745,-0.1755,-0.1732,-0.1765,-0.1805,-0.1792,-0.1878,-0.1914,-0.1874,-0.1894,-0.1831,-0.1804,-0.174,-0.1646,-0.1608,-0.1629,-0.1493,-0.1541,-0.1537,-0.1494,-0.1463,-0.145,-0.1438,-0.1597,-0.1598,-0.1599,0,0,-0.1678,-0.1737,-0.1689,-0.1718,-0.1745,-0.1773,-0.1791,-0.1835,-0.185,-0.1787,-0.1768,-0.1718,-0.1634,-0.1569,-0.1533,-0.1436,-0.1447,-0.1422,-0.1361,-0.1331,-0.132,-0.131,-0.1264,-0.125,-0.1425,-0.1425,-0.1425,0,-0.1642,-0.161,-0.1682,-0.1666,-0.1667,-0.1764,-0.1729,-0.1751,-0.1734,-0.1712,-0.1745,-0.1612,-0.1584,-0.1468,-0.1425,-0.142,-0.1401,-0.1424,-0.1326,-0.1316,-0.1305,-0.126,-0.1245,-0.1424,-0.1424,-0.1424,-0.1424,0,-0.1528,-0.1522,-0.1533,-0.1512,-0.1525,-0.154,-0.1562,-0.156,-0.1593,-0.1582,-0.1504,-0.1472,-0.1396,-0.1387,-0.1378,-0.1278,-0.1287,-0.1328,-0.1371,-0.1292,-0.1248,-0.1232,-0.1423,-0.1423,-0.1424,-0.1424,0,0,-0.1432,-0.1435,-0.1443,-0.1421,-0.1465,-0.1469,-0.1419,-0.14,-0.1381,-0.1358,-0.1308,-0.1221,-0.1254,-0.1208,-0.1214,-0.1187,-0.1123,-0.1225,-0.1224,-0.1209,-0.104,-0.0891,-0.0859,-0.117,-0.1167,-0.1165,-0.1042,0,-0.1334,-0.1264,-0.128,-0.1214,-0.1214,-0.1274,-0.1228,-0.121,-0.1226,-0.1194,-0.1195,-0.1146,-0.1176,-0.1171,-0.1139,-0.1136,-0.1078,-0.115,-0.1087,-0.1083,-0.0987,-0.0834,-0.0927,-0.0809,-0.1026,-0.1023,-0.1022,0,-0.1243,-0.121,-0.1125,-0.1111,-0.1119,-0.1071,-0.1066,-0.1028,-0.1018,-0.1035,-0.1004,-0.1024,-0.0964,-0.1032,-0.0953,-0.1008,-0.0987,-0.0989,-0.0987,-0.0822,-0.0901,-0.0916,-0.0772,-0.0995,-0.0997,-0.0999,-0.1001,0,-0.1184,-0.1131,-0.1059,-0.1056,-0.1026,-0.0991,-0.0983,-0.0975,-0.0973,-0.0942,-0.0952,-0.0894,-0.0897,-0.086,-0.0854,-0.0913,-0.0775,-0.0873,-0.0693,-0.0685,-0.0726,-0.0723,-0.0761,-0.0761,-0.0761,-0.0762,-0.0762,0,-0.1117,-0.1069,-0.1032,-0.0998,-0.094,-0.0937,-0.0891,-0.0888,-0.0888,-0.0868,-0.0878,-0.0843,-0.0861,-0.0805,-0.0794,-0.0659,-0.072,-0.0606,-0.0612,-0.0724,-0.0722,-0.0862,-0.0875,-0.0757,-0.0758,-0.0759,-0.076,0,-0.1057,-0.1037,-0.0978,-0.0928,-0.0918,-0.0885,-0.0879,-0.0857,-0.0863,-0.084,-0.0834,-0.0808,-0.0708,-0.0679,-0.061,-0.0569,-0.0475,-0.0405,-0.0508,-0.0521,-0.0428,-0.0443,-0.0197,-0.019,-0.0184,-0.0179,-0.0175,0,-0.0989,-0.0958,-0.0939,-0.0939,-0.0913,-0.0877,-0.0867,-0.0857,-0.086,-0.08,-0.0795,-0.068,-0.0562,-0.0373,-0.0279,-0.0147,-0.0262,-0.0171,-0.0257,-0.0323,-0.0356,-0.0381,-0.0402,-0.0346,-0.0344,-0.0342,-0.034,0,-0.0875,-0.0909,-0.087,-0.0876,-0.0865,-0.0851,-0.0844,-0.0826,-0.0801,-0.0758,-0.0631,-0.0502,-0.0304,-0.0162,0.0009,0.0031,-0.02,-0.0114,-0.0166,-0.0437,-0.0443,-0.0483,-0.0504,-0.0323,-0.0324,-0.0326,-0.0327,-0.0327,-0.0817,-0.0796,-0.0792,-0.0785,-0.0796,-0.0782,-0.0725,-0.0718,-0.0637,-0.0533,-0.0474,-0.0274,-0.0257,0.0066,0.0115,0.0134,0.0126,-0.0005,-0.0022,-0.0038,-0.0039,-0.003,0.0167,0.0168,0.0169,0.017,0.017,0,-0.0731,-0.0716,-0.07,-0.0682,-0.0661,-0.0701,-0.0671,-0.0607,-0.0459,-0.0374,-0.0232,-0.0113,0.0004,0.0049,0.0159,0.0216,0.009,0.0128,-0.0107,-0.0123,-0.0139,-0.0155,0.0026,0.0026,0.0027,0.0027,0,0,-0.0685,-0.0629,-0.0601,-0.0513,-0.0522,-0.0433,-0.0386,-0.033,-0.0262,-0.0093,0.0016,0.0048,0.0085,0.0085,0.0053,0.0081,-0.0027,0.0055,0.0155,-0.0138,-0.0152,-0.0239,-0.0282,0,0,0,0,0]},{"header":{"parameterUnit":"m.s-1","parameterCategory":2,"la1":30.2991,"la2":30.254,"lo1":-89.0895,"lo2":-89.0444,"dy":0.0017,"dx":0.0017,"nx":28,"ny":28,"refTime":"2025-08-02T09:00:00:Z","depth":"2","parameterNumber":3,"parameterNumberName":"V-component_of_CURRENTS"},"data":[0,0,0,0,0,0,0,0,0,0,0,0,0,0,0,0,0,0,0,0,0,0,0,0,0,0,0,0,0,0,0,0,0,0,0,0,0,0,0,0,0,0,0,0,0,0,0,0,0,0,0,0,0,0,0,0,0,0,-0.0604,-0.0603,0,-0.0412,-0.0409,-0.0406,-0.0306,-0.0307,-0.0308,-0.0309,0.0034,0.0044,0.0054,0,0,0,0,0,0,0,0,0,0,0,0,0,-0.0634,-0.0635,-0.0604,-0.0603,-0.0601,-0.0412,-0.0409,-0.0405,-0.0306,-0.0307,-0.0308,-0.0309,0.0031,0.0042,0.0054,0,0,0,0,0,0,0,0,0,0,0,0,0,-0.054,-0.0635,-0.0605,-0.0537,-0.053,-0.0413,-0.0408,-0.0404,-0.0306,-0.0307,-0.0308,-0.031,0.0027,0.0041,0.0056,0.0175,0,0,0.0102,0.0108,0,0,0,0,0,0,0,0,-0.0546,-0.0537,-0.0549,-0.0542,-0.0534,-0.0394,-0.0294,-0.0207,-0.0305,-0.0379,-0.0309,-0.031,-0.0101,-0.0076,-0.0023,0.0191,0.0206,0.0103,0.0112,0.0119,0.0123,0,0,0,0,0,0,0,-0.0553,-0.0544,-0.0517,-0.0547,-0.0538,-0.0432,-0.0421,-0.0275,-0.0224,-0.0373,-0.0368,-0.0364,-0.0095,-0.0038,-0.0014,0.0211,0.0103,0.0116,0.0125,0.0131,0.0513,0.0514,0,0,0,0,0,0,-0.061,-0.0552,-0.0523,-0.0512,-0.0556,-0.0432,-0.0419,-0.0428,-0.0228,-0.0204,-0.0363,-0.036,-0.0063,-0.0032,-0.0002,0.0134,0.0118,0.0132,0.0141,0.0512,0.0513,0.0515,0,0,0,0,0,0,-0.0612,-0.061,-0.0531,-0.0535,-0.0519,-0.0433,-0.0442,-0.0424,-0.0358,-0.0225,-0.0195,-0.0317,-0.0063,-0.0023,0.0136,0.0148,0.0139,0.0153,0.0511,0.0512,0.0514,0.0417,0,0,0,0,0,0,-0.0614,-0.0612,-0.0624,-0.054,-0.0522,-0.0454,-0.0442,-0.042,-0.036,-0.0353,-0.0174,-0.0145,-0.0061,0.0112,0.015,0.0169,0.0164,0.0509,0.0511,0.0513,0.0418,0.0415,0.0412,0,0,0,0,0,-0.0616,-0.0619,-0.0626,-0.0622,-0.0547,-0.0453,-0.0431,-0.0366,-0.0357,-0.0312,-0.0202,-0.015,0.0151,0.0127,0.0171,0.0193,0.0508,0.0511,0.0513,0.042,0.0416,0.0412,0,0,0,0,0,0,-0.0627,-0.0608,-0.0614,-0.0611,-0.0544,-0.0441,-0.0395,-0.0358,-0.0234,-0.022,-0.0103,-0.0063,0.0075,0.0157,0.0126,0.0307,0.0328,0.0339,0.0241,0.0239,0.0236,0.0187,0.0177,0,0,0,0,0,-0.0647,-0.065,-0.06,-0.0594,-0.0563,-0.0479,-0.0432,-0.0386,-0.0281,-0.0228,-0.0106,0.0015,0.0123,0.0195,0.0321,0.0444,0.0463,0.0477,0.0474,0.047,0.046,0.0445,0.0437,0.0523,0.0523,0.0523,0,0,-0.0652,-0.0642,-0.0643,-0.0597,-0.0536,-0.0481,-0.0448,-0.0369,-0.0313,-0.0204,-0.0062,0.0033,0.0157,0.0278,0.0344,0.0347,0.0469,0.0474,0.0469,0.0461,0.0446,0.0437,0.0429,0.0525,0.0525,0.0525,0,0,-0.0644,-0.0648,-0.0639,-0.0589,-0.0518,-0.0463,-0.0447,-0.0329,-0.0265,-0.0127,-0.0061,0.0031,0.0243,0.0299,0.0356,0.0418,0.0457,0.046,0.0406,0.0391,0.0382,0.0374,0.0425,0.0422,0.0448,0.0448,0.0448,0,-0.065,-0.0641,-0.0611,-0.0576,-0.0538,-0.0464,-0.0419,-0.0336,-0.0179,-0.0143,-0.0089,0.0119,0.0242,0.0308,0.0332,0.0408,0.042,0.0404,0.0379,0.0372,0.0365,0.0419,0.0417,0.0444,0.0444,0.0445,0.0445,0,-0.0615,-0.0613,-0.0587,-0.0544,-0.0496,-0.0429,-0.0349,-0.0271,-0.0194,-0.0137,-0.0028,0.0112,0.0211,0.026,0.0335,0.0344,0.0378,0.0375,0.037,0.0349,0.041,0.041,0.0438,0.0439,0.0441,0.0442,0,0,-0.0615,-0.0577,-0.0569,-0.0557,-0.0471,-0.0424,-0.0347,-0.027,-0.0242,-0.0113,-0.0081,0.0085,0.0112,0.0177,0.025,0.0249,0.0255,0.0291,0.0292,0.0311,0.0256,0.0253,0.0254,0.0223,0.0221,0.022,0.0329,0,-0.0589,-0.0545,-0.0531,-0.0481,-0.0444,-0.0389,-0.0329,-0.0264,-0.0191,-0.0131,-0.0063,0.0021,0.009,0.0133,0.0137,0.0236,0.0244,0.0229,0.0302,0.0306,0.0276,0.0248,0.0238,0.0329,0.0329,0.0329,0.0329,0,-0.0552,-0.0532,-0.0489,-0.0466,-0.0444,-0.0411,-0.0346,-0.0285,-0.0227,-0.0175,-0.015,-0.0085,-0.003,0.002,0.0108,0.0088,0.0168,0.0225,0.023,0.0252,0.0299,0.0347,0.0329,0.0329,0.0329,0.0329,0.0329,0,-0.0544,-0.0508,-0.048,-0.046,-0.0411,-0.0394,-0.0361,-0.0306,-0.026,-0.0225,-0.0198,-0.0162,-0.0089,-0.0054,0.0103,0.0095,0.0189,0.0194,0.0261,0.0266,0.0287,0.0293,0.0222,0.0222,0.0221,0.0221,0.0221,0,-0.0512,-0.0497,-0.048,-0.0459,-0.0436,-0.0404,-0.0379,-0.0343,-0.0302,-0.0252,-0.0232,-0.0176,-0.011,-0.0032,0.0061,0.0172,0.0158,0.0247,0.027,0.0261,0.0264,0.0281,0.0286,0.0225,0.0224,0.0224,0.0223,0,-0.0504,-0.0486,-0.0469,-0.0439,-0.0434,-0.0418,-0.039,-0.0378,-0.0328,-0.0265,-0.0252,-0.0175,-0.0079,-0.0007,0.0106,0.0158,0.0239,0.0285,0.0304,0.0324,0.0344,0.0343,0.0348,0.0348,0.0348,0.0348,0.0349,0,-0.0489,-0.0477,-0.0466,-0.0471,-0.0462,-0.0443,-0.0437,-0.0393,-0.0353,-0.0235,-0.0192,-0.0108,-0.0044,0.0084,0.0182,0.0281,0.029,0.0335,0.0298,0.0322,0.0346,0.0345,0.0345,0.0329,0.0329,0.0329,0.0329,0,-0.0474,-0.0478,-0.0474,-0.0484,-0.0489,-0.0475,-0.0437,-0.0409,-0.0315,-0.0265,-0.0151,-0.0115,0.0028,0.0122,0.0232,0.0281,0.0297,0.0337,0.034,0.0278,0.0306,0.0329,0.0329,0.0329,0.0329,0.0329,0.0329,0.0329,-0.0476,-0.0485,-0.0495,-0.0505,-0.0514,-0.049,-0.0463,-0.0403,-0.0342,-0.0207,-0.0152,-0.0086,0.0023,0.0144,0.0236,0.0322,0.0332,0.0344,0.0343,0.0343,0.0299,0.0324,0.0348,0.0348,0.0348,0.0348,0.0348,0,-0.0478,-0.05,-0.0518,-0.0529,-0.0543,-0.0514,-0.0454,-0.0415,-0.0335,-0.0221,-0.0145,-0.0083,0.0008,0.0125,0.0288,0.0354,0.0327,0.0331,0.0318,0.0318,0.0319,0.0272,0.0314,0.0314,0.0314,0.0314,0,0,-0.0487,-0.0515,-0.0533,-0.0556,-0.0546,-0.0511,-0.0464,-0.0404,-0.0325,-0.0227,-0.0152,-0.0123,0.0015,0.0103,0.0202,0.0296,0.0265,0.026,0.0284,0.0259,0.0258,0.0328,0.0258,0,0,0,0,0]}],[{"header":{"parameterUnit":"m.s-1","parameterCategory":2,"la1":30.2991,"la2":30.254,"lo1":-89.0895,"lo2":-89.0444,"dy":0.0017,"dx":0.0017,"nx":28,"ny":28,"refTime":"2025-08-02T09:00:00:Z","depth":"4","parameterNumber":2,"parameterNumberName":"U-component_of_CURRENTS"},"data":[0,0,0,0,0,0,0,0,0,0,0,0,0,0,0,0,0,0,0,0,0,0,0,0,0,0,0,0,0,0,0,0,0,0,0,0,0,0,0,0,0,0,0,0,0,0,0,0,0,0,0,0,0,0,0,0,0,0,-0.0649,-0.065,0,-0.0695,-0.0695,-0.0695,-0.0732,-0.0733,-0.0733,-0.0734,-0.0767,-0.0767,-0.0767,0,0,0,0,0,0,0,0,0,0,0,0,0,-0.068,-0.0678,-0.0649,-0.065,-0.0651,-0.0695,-0.0695,-0.0695,-0.0732,-0.0733,-0.0734,-0.0735,-0.0766,-0.0767,-0.0767,0,0,0,0,0,0,0,0,0,0,0,0,0,-0.0686,-0.0677,-0.0649,-0.0677,-0.0681,-0.0695,-0.0695,-0.0695,-0.0732,-0.0733,-0.0734,-0.0735,-0.0766,-0.0767,-0.0767,-0.0745,0,0,-0.0768,-0.0768,0,0,0,0,0,0,0,0,-0.0685,-0.0684,-0.0672,-0.0676,-0.0679,-0.0713,-0.0718,-0.0713,-0.0731,-0.0708,-0.0734,-0.0736,-0.0749,-0.0751,-0.0751,-0.0747,-0.0748,-0.0768,-0.0768,-0.0768,-0.0768,0,0,0,0,0,0,0,-0.0685,-0.0683,-0.0663,-0.0673,-0.0678,-0.0718,-0.0719,-0.0717,-0.0718,-0.071,-0.0714,-0.0725,-0.0751,-0.0751,-0.0752,-0.0749,-0.0768,-0.0768,-0.0768,-0.0768,-0.0794,-0.0794,0,0,0,0,0,0,-0.0681,-0.0681,-0.0661,-0.0665,-0.069,-0.0717,-0.0718,-0.0697,-0.0718,-0.0724,-0.0724,-0.0727,-0.075,-0.0752,-0.0753,-0.077,-0.0768,-0.0768,-0.0768,-0.0793,-0.0794,-0.0794,0,0,0,0,0,0,-0.0681,-0.0677,-0.066,-0.068,-0.0681,-0.0715,-0.0692,-0.0698,-0.0716,-0.073,-0.0735,-0.074,-0.0751,-0.0753,-0.0773,-0.077,-0.0768,-0.0768,-0.0792,-0.0793,-0.0794,-0.0778,0,0,0,0,0,0,-0.0681,-0.0676,-0.0664,-0.0678,-0.068,-0.067,-0.0692,-0.0698,-0.0722,-0.0727,-0.0744,-0.0748,-0.0752,-0.0773,-0.0773,-0.0771,-0.0768,-0.0792,-0.0793,-0.0794,-0.0777,-0.0778,-0.0778,0,0,0,0,0,-0.0681,-0.0648,-0.0662,-0.0661,-0.0659,-0.0671,-0.0674,-0.0701,-0.0722,-0.0723,-0.0748,-0.0748,-0.078,-0.0773,-0.0774,-0.0771,-0.0791,-0.0793,-0.0794,-0.0777,-0.0778,-0.0778,0,0,0,0,0,0,-0.0659,-0.065,-0.0665,-0.0632,-0.0658,-0.0679,-0.0674,-0.0707,-0.0726,-0.073,-0.0752,-0.0757,-0.0768,-0.0778,-0.0771,-0.0784,-0.0786,-0.0787,-0.0773,-0.0774,-0.0774,-0.0772,-0.0769,0,0,0,0,0,-0.0648,-0.0626,-0.0637,-0.0625,-0.0619,-0.0653,-0.0664,-0.0687,-0.0708,-0.0719,-0.0748,-0.0768,-0.0769,-0.0781,-0.0784,-0.0793,-0.0791,-0.0794,-0.0795,-0.0795,-0.0795,-0.0808,-0.0809,-0.0798,-0.0798,-0.0798,0,0,-0.0646,-0.0638,-0.0631,-0.0622,-0.063,-0.0635,-0.066,-0.067,-0.0697,-0.0717,-0.0757,-0.0765,-0.0771,-0.0779,-0.0786,-0.0791,-0.0791,-0.0796,-0.0796,-0.0797,-0.0809,-0.081,-0.0811,-0.0799,-0.0799,-0.0799,0,0,-0.0636,-0.0607,-0.059,-0.0599,-0.0615,-0.0625,-0.0632,-0.0663,-0.0687,-0.0725,-0.0741,-0.0757,-0.0783,-0.0785,-0.0786,-0.0793,-0.0787,-0.0796,-0.08,-0.0812,-0.0813,-0.0814,-0.0785,-0.0783,-0.0803,-0.0803,-0.0803,0,-0.0642,-0.0611,-0.0596,-0.059,-0.0599,-0.0621,-0.0624,-0.0644,-0.0699,-0.0723,-0.0738,-0.0782,-0.0782,-0.0788,-0.0787,-0.0791,-0.0788,-0.0794,-0.0811,-0.0812,-0.0813,-0.0784,-0.0782,-0.0802,-0.0803,-0.0803,-0.0803,0,-0.0623,-0.0609,-0.0593,-0.0589,-0.0598,-0.0595,-0.0619,-0.065,-0.0686,-0.0721,-0.0754,-0.0766,-0.0795,-0.0792,-0.0787,-0.0794,-0.0783,-0.0802,-0.0806,-0.0813,-0.0781,-0.078,-0.0802,-0.0802,-0.0802,-0.0802,0,0,-0.0603,-0.0584,-0.0582,-0.0593,-0.0592,-0.0604,-0.0625,-0.0653,-0.0684,-0.0732,-0.077,-0.0774,-0.0793,-0.0796,-0.0797,-0.0804,-0.0787,-0.0806,-0.0807,-0.0768,-0.0787,-0.0711,-0.0702,-0.0815,-0.0815,-0.0816,-0.0751,0,-0.0597,-0.0587,-0.0579,-0.0595,-0.0584,-0.0608,-0.0634,-0.0673,-0.0704,-0.0746,-0.0761,-0.0783,-0.0789,-0.0796,-0.0806,-0.0793,-0.0788,-0.0801,-0.0794,-0.0793,-0.0719,-0.07,-0.0817,-0.075,-0.075,-0.0749,-0.0749,0,-0.0575,-0.0572,-0.0571,-0.0599,-0.0596,-0.0619,-0.0659,-0.0689,-0.0731,-0.0756,-0.0785,-0.0796,-0.0799,-0.0808,-0.0801,-0.0812,-0.0796,-0.0787,-0.0786,-0.0723,-0.0716,-0.0751,-0.0746,-0.0747,-0.0747,-0.0747,-0.0747,0,-0.0566,-0.057,-0.0571,-0.0577,-0.0604,-0.063,-0.0655,-0.0699,-0.0721,-0.0758,-0.0767,-0.0793,-0.0787,-0.0799,-0.0775,-0.0792,-0.0758,-0.0782,-0.0697,-0.069,-0.0785,-0.0785,-0.0777,-0.0778,-0.0778,-0.0778,-0.0778,0,-0.0547,-0.0556,-0.0574,-0.0579,-0.0608,-0.0632,-0.0668,-0.0704,-0.0732,-0.0737,-0.0769,-0.0763,-0.0788,-0.0772,-0.0769,-0.0711,-0.0755,-0.0682,-0.0672,-0.0776,-0.0776,-0.0782,-0.0783,-0.0775,-0.0776,-0.0776,-0.0777,0,-0.0537,-0.0541,-0.0556,-0.0587,-0.0602,-0.063,-0.0672,-0.0687,-0.0719,-0.072,-0.0723,-0.0731,-0.0696,-0.0701,-0.0689,-0.0674,-0.0649,-0.062,-0.0693,-0.0691,-0.057,-0.0572,-0.0515,-0.0512,-0.0509,-0.0507,-0.0505,0,-0.0527,-0.0527,-0.0562,-0.057,-0.0586,-0.0622,-0.0636,-0.0681,-0.0679,-0.0688,-0.067,-0.0644,-0.0638,-0.0552,-0.0577,-0.0548,-0.0551,-0.0531,-0.0581,-0.0549,-0.0545,-0.0551,-0.0556,-0.0501,-0.0501,-0.05,-0.0499,0,-0.0508,-0.0524,-0.0536,-0.0541,-0.056,-0.0574,-0.0592,-0.0592,-0.0613,-0.0648,-0.0591,-0.0564,-0.0508,-0.0492,-0.0458,-0.0455,-0.0547,-0.0503,-0.051,-0.0557,-0.0531,-0.0532,-0.054,-0.049,-0.0491,-0.0492,-0.0493,0,-0.05,-0.0499,-0.0498,-0.0501,-0.0515,-0.0494,-0.0529,-0.0506,-0.0514,-0.0527,-0.0503,-0.0482,-0.0488,-0.044,-0.0423,-0.0394,-0.0398,-0.0404,-0.0416,-0.0426,-0.043,-0.0386,-0.0278,0,0,0,0,0,-0.0483,-0.0451,-0.0446,-0.0433,-0.044,-0.0435,-0.0466,-0.0494,-0.0523,-0.0462,-0.0481,-0.0429,-0.0379,-0.0381,-0.0331,-0.0383,-0.0402,-0.0325,-0.0417,-0.0439,-0.045,-0.0464,0,0,0,0,0,0,-0.0464,-0.0451,-0.042,-0.0354,-0.0329,-0.0319,-0.0337,-0.0368,-0.0343,-0.0382,-0.0358,-0.0386,-0.0348,-0.0379,-0.031,-0.0309,-0.0357,-0.0325,-0.0323,-0.0433,-0.0443,-0.0451,-0.0469,0,0,0,0,0]},{"header":{"parameterUnit":"m.s-1","parameterCategory":2,"la1":30.2991,"la2":30.254,"lo1":-89.0895,"lo2":-89.0444,"dy":0.0017,"dx":0.0017,"nx":28,"ny":28,"refTime":"2025-08-02T09:00:00:Z","depth":"4","parameterNumber":3,"parameterNumberName":"V-component_of_CURRENTS"},"data":[0,0,0,0,0,0,0,0,0,0,0,0,0,0,0,0,0,0,0,0,0,0,0,0,0,0,0,0,0,0,0,0,0,0,0,0,0,0,0,0,0,0,0,0,0,0,0,0,0,0,0,0,0,0,0,0,0,0,-0.0479,-0.0479,0,-0.0446,-0.0446,-0.0446,-0.0482,-0.0483,-0.0484,-0.0486,-0.0429,-0.0427,-0.0424,0,0,0,0,0,0,0,0,0,0,0,0,0,-0.0469,-0.047,-0.0479,-0.0479,-0.0478,-0.0446,-0.0446,-0.0446,-0.0482,-0.0483,-0.0485,-0.0486,-0.043,-0.0427,-0.0424,0,0,0,0,0,0,0,0,0,0,0,0,0,-0.0461,-0.047,-0.0479,-0.049,-0.0491,-0.0446,-0.0446,-0.0446,-0.0482,-0.0483,-0.0485,-0.0487,-0.0431,-0.0428,-0.0424,-0.0365,0,0,-0.0412,-0.041,0,0,0,0,0,0,0,0,-0.0462,-0.0462,-0.0489,-0.0489,-0.049,-0.0468,-0.0422,-0.0417,-0.0481,-0.0488,-0.0486,-0.0488,-0.0437,-0.0433,-0.0427,-0.0363,-0.036,-0.0412,-0.0409,-0.0408,-0.0407,0,0,0,0,0,0,0,-0.0462,-0.0463,-0.0469,-0.0488,-0.0489,-0.0461,-0.0463,-0.0421,-0.0455,-0.0487,-0.0489,-0.0481,-0.0438,-0.0431,-0.0426,-0.036,-0.0412,-0.0408,-0.0406,-0.0404,-0.0309,-0.0308,0,0,0,0,0,0,-0.0465,-0.0464,-0.047,-0.0467,-0.0477,-0.046,-0.0462,-0.0475,-0.0456,-0.0454,-0.048,-0.0483,-0.0436,-0.043,-0.0424,-0.0404,-0.0408,-0.0404,-0.0402,-0.0309,-0.0308,-0.0308,0,0,0,0,0,0,-0.0465,-0.0467,-0.0471,-0.0461,-0.046,-0.0459,-0.0473,-0.0474,-0.0479,-0.045,-0.0448,-0.0485,-0.0437,-0.0429,-0.039,-0.04,-0.0402,-0.0399,-0.0309,-0.0309,-0.0308,-0.0331,0,0,0,0,0,0,-0.0465,-0.0467,-0.0481,-0.0462,-0.046,-0.0454,-0.0471,-0.0472,-0.0469,-0.0473,-0.0453,-0.0449,-0.0438,-0.0396,-0.0386,-0.0395,-0.0396,-0.0309,-0.0309,-0.0308,-0.033,-0.0331,-0.0332,0,0,0,0,0,-0.0465,-0.0468,-0.0482,-0.0482,-0.0479,-0.0453,-0.045,-0.0455,-0.0468,-0.0467,-0.045,-0.0451,-0.0388,-0.0391,-0.0381,-0.0388,-0.031,-0.0309,-0.0308,-0.033,-0.0331,-0.0332,0,0,0,0,0,0,-0.0464,-0.0471,-0.0486,-0.0492,-0.048,-0.0459,-0.0454,-0.0455,-0.044,-0.0446,-0.0428,-0.0422,-0.0401,-0.038,-0.0385,-0.0361,-0.0356,-0.0353,-0.0376,-0.0377,-0.0377,-0.0368,-0.0393,0,0,0,0,0,-0.0471,-0.0482,-0.0476,-0.0479,-0.0477,-0.0468,-0.0459,-0.0461,-0.0441,-0.0439,-0.0426,-0.0407,-0.0385,-0.037,-0.035,-0.0314,-0.0278,-0.0318,-0.0318,-0.0319,-0.0304,-0.0241,-0.0234,-0.0306,-0.0306,-0.0306,0,0,-0.0469,-0.0473,-0.0481,-0.048,-0.0474,-0.0467,-0.0468,-0.0455,-0.0452,-0.0429,-0.0422,-0.0406,-0.0377,-0.0356,-0.0345,-0.034,-0.0285,-0.0319,-0.032,-0.0304,-0.0239,-0.0232,-0.0225,-0.0306,-0.0306,-0.0306,0,0,-0.0457,-0.0479,-0.0483,-0.0476,-0.0467,-0.0463,-0.0462,-0.0449,-0.0452,-0.0426,-0.0424,-0.0402,-0.0367,-0.0351,-0.0336,-0.0319,-0.0294,-0.0329,-0.0318,-0.0257,-0.025,-0.0243,-0.021,-0.02,-0.0326,-0.0326,-0.0326,0,-0.0455,-0.0468,-0.0474,-0.0469,-0.0463,-0.0465,-0.0458,-0.0453,-0.043,-0.0419,-0.043,-0.0377,-0.0363,-0.0323,-0.0331,-0.0321,-0.0288,-0.0319,-0.0257,-0.0249,-0.0242,-0.0209,-0.0198,-0.0327,-0.0327,-0.0326,-0.0326,0,-0.0445,-0.0455,-0.045,-0.0461,-0.0453,-0.0442,-0.0439,-0.0437,-0.044,-0.0429,-0.0399,-0.037,-0.0334,-0.0341,-0.033,-0.0283,-0.0278,-0.0269,-0.0254,-0.0236,-0.0203,-0.0191,-0.0328,-0.0328,-0.0327,-0.0327,0,0,-0.0434,-0.0446,-0.0444,-0.0452,-0.0449,-0.0439,-0.0435,-0.0422,-0.041,-0.0398,-0.0368,-0.0344,-0.0329,-0.0309,-0.0297,-0.0251,-0.0192,-0.0241,-0.0238,-0.0208,-0.0069,-0.0124,-0.0116,-0.0168,-0.0166,-0.0164,-0.0074,0,-0.0426,-0.0426,-0.0429,-0.0426,-0.0429,-0.0428,-0.0417,-0.0404,-0.0395,-0.0368,-0.0339,-0.0309,-0.0317,-0.0298,-0.0253,-0.0208,-0.0157,-0.0218,-0.009,-0.0086,-0.0136,-0.0102,-0.0156,-0.0064,-0.0062,-0.006,-0.0058,0,-0.0415,-0.0419,-0.0419,-0.0418,-0.0416,-0.0412,-0.0396,-0.0384,-0.0348,-0.0335,-0.0298,-0.0277,-0.0224,-0.0227,-0.0123,-0.016,-0.011,-0.0074,-0.0069,-0.0098,-0.0117,-0.008,-0.0036,-0.0037,-0.0039,-0.0041,-0.0042,0,-0.0407,-0.0409,-0.0414,-0.0413,-0.041,-0.0405,-0.04,-0.0372,-0.0359,-0.031,-0.0293,-0.0224,-0.0196,-0.0113,-0.0075,-0.0079,0.0039,0.0047,0.005,0.0046,0.0077,0.0069,0.015,0.0149,0.0149,0.0149,0.0149,0,-0.0393,-0.0397,-0.0414,-0.0413,-0.041,-0.0401,-0.0384,-0.0368,-0.0332,-0.0323,-0.0274,-0.0257,-0.0162,-0.0107,-0.0048,0.0019,0.0064,0.0066,0.0076,0.006,0.005,0.0084,0.0076,0.0152,0.0152,0.0151,0.015,0,-0.0381,-0.0391,-0.04,-0.0405,-0.0408,-0.0403,-0.0395,-0.0388,-0.0346,-0.0332,-0.0319,-0.0263,-0.0199,-0.0119,0.0002,0.0036,0.0117,0.0133,0.009,0.0093,0.0083,0.0072,0.0177,0.0176,0.0175,0.0175,0.0174,0,-0.0376,-0.0381,-0.0401,-0.0418,-0.0425,-0.0423,-0.0432,-0.0401,-0.0402,-0.0359,-0.0363,-0.0292,-0.026,-0.0119,-0.004,0.0089,0.0097,0.0146,0.0142,0.0092,0.0092,0.0082,0.0072,0.0173,0.0173,0.0172,0.0172,0,-0.0372,-0.0384,-0.0395,-0.0432,-0.0454,-0.047,-0.0482,-0.0472,-0.045,-0.042,-0.0386,-0.0316,-0.0248,-0.0143,-0.0052,0.0033,0.0122,0.0139,0.0142,0.0139,0.0088,0.0087,0.0078,0.0169,0.017,0.017,0.017,0,-0.0379,-0.0392,-0.0422,-0.0449,-0.0484,-0.0515,-0.0506,-0.0509,-0.0487,-0.0437,-0.0441,-0.0351,-0.0296,-0.0175,-0.0101,-0.0016,0.0017,0.0056,0.0064,0.0068,-0.0005,-0.0088,-0.0037,0,0,0,0,0,-0.0393,-0.0418,-0.0447,-0.0477,-0.0513,-0.0534,-0.0551,-0.054,-0.0518,-0.0499,-0.0457,-0.0399,-0.0274,-0.0218,-0.0137,-0.0119,0.0023,-0.0023,0.0069,0.0154,0.0157,0.0084,0,0,0,0,0,0,-0.0408,-0.0439,-0.0451,-0.0502,-0.0528,-0.0568,-0.0579,-0.0565,-0.0536,-0.0503,-0.043,-0.0388,-0.0261,-0.0319,-0.0139,-0.0116,-0.0048,0.0039,0.0041,0.0152,0.0155,0.0158,0.0083,0,0,0,0,0]}]]